Wind_Speed
37 37 34 34 36 39 41 42 43 44 45 45 45 48 48 51 54 56 53 56 56 55 57 57 59 61 62 65 69 72 75 76 76 77 77 77 78 83 83 80 82 81 78 74 71 70 70 68 64 69 71 67 66 61
28 29 26 25 28 31 34 36 38 38 39 41 43 42 41 43 45 46 46 47 49 49 51 51 52 54 54 56 58 60 65 66 68 67 67 66 63 67 66 70 70 70 68 62 60 59 65 62 65 66 65 61 57 52
22 22 23 22 22 24 26 29 32 34 35 37 37 38 40 41 42 43 41 46 46 47 48 49 47 48 49 51 53 55 56 56 57 59 59 55 56 58 58 61 60 60 58 51 55 57 57 59 63 60 59 52 46 45
15 17 19 18 17 19 21 23 25 26 27 28 30 33 34 35 36 37 38 40 42 44 44 45 46 47 47 46 47 47 48 47 48 48 47 43 47 52 52 51 51 53 51 51 52 55 49 49 58 52 52 48 41 42
16 16 15 14 13 15 17 19 20 21 22 23 26 26 28 30 31 33 34 36 37 39 41 41 42 44 43 42 42 41 42 41 42 41 40 41 46 49 46 40 41 51 50 49 52 51 50 53 53 52 48 44 44 39
19 16 15 12 10 10 11 12 15 17 19 21 23 23 25 26 29 30 31 33 33 34 36 37 38 39 39 35 34 39 40 38 37 38 37 38 44 38 38 35 46 47 47 50 51 51 52 55 42 39 37 39 39 40
22 18 15 12 9 7 7 7 9 11 13 15 18 19 20 21 23 25 28 28 29 29 31 32 36 36 30 26 30 36 34 36 31 28 33 34 36 29 30 33 50 44 48 48 48 49 48 44 38 35 36 37 38 37
24 22 19 15 11 8 6 5 6 6 7 9 11 13 14 16 19 21 22 22 24 25 26 28 29 26 25 25 29 31 31 29 26 26 32 32 26 24 34 46 44 42 44 41 42 43 42 38 36 36 35 36 37 35
28 24 21 18 15 11 8 6 5 5 6 7 8 10 12 15 15 16 16 16 17 18 19 18 17 21 19 21 22 24 23 26 27 29 26 25 25 36 43 42 40 38 37 37 38 39 39 36 35 32 34 33 30 36
29 27 24 21 19 15 12 8 6 5 5 5 6 8 9 10 11 11 12 11 12 13 14 13 16 14 15 15 18 20 22 21 20 21 26 29 32 34 33 32 28 26 30 31 33 33 33 31 28 29 32 32 35 40
32 28 25 23 21 19 16 14 10 7 4 3 2 4 5 7 8 7 8 8 11 11 11 11 11 12 11 13 15 15 15 16 17 19 22 22 24 26 26 25 22 22 24 27 28 25 26 27 29 29 30 34 37 35
35 30 27 24 21 19 17 15 14 11 8 5 3 1 1 3 3 2 2 4 5 5 5 6 6 5 6 8 10 11 12 14 17 18 17 15 19 19 19 18 20 20 22 21 21 23 24 26 29 30 33 33 29 26
33 33 31 28 26 23 20 17 15 14 13 11 7 5 5 4 3 4 5 4 4 2 2 3 1 2 2 3 6 10 11 10 10 10 10 8 11 12 14 15 16 17 19 21 21 23 24 26 28 28 28 25 24 27
32 30 29 27 24 23 22 21 19 16 15 14 14 10 8 6 5 8 9 10 9 9 7 6 3 5 4 3 2 5 8 9 12 11 10 11 13 13 14 14 15 16 18 19 20 21 24 24 24 24 25 24 25 24
35 32 31 30 29 28 28 27 26 26 23 20 18 18 17 17 14 12 11 10 9 8 5 4 4 5 5 5 5 6 8 10 10 10 11 11 13 15 16 17 18 19 18 17 17 18 20 21 23 24 23 21 22 23
36 34 31 28 29 28 26 25 25 26 26 26 24 22 20 18 17 16 15 13 11 9 8 5 3 2 1 3 4 4 6 8 9 9 8 9 11 11 12 12 13 14 15 17 18 18 19 18 17 16 18 19 18 20
35 34 32 29 26 25 26 24 22 22 23 24 25 24 23 21 18 16 15 14 13 10 9 7 5 6 4 4 3 4 4 2 3 3 3 4 6 6 4 5 6 8 10 11 13 15 16 14 14 14 15 14 15 15
31 30 31 28 27 24 21 20 20 19 17 17 18 19 20 21 20 19 18 16 14 13 12 11 10 8 8 8 7 7 6 5 3 2 1 2 2 3 4 5 6 8 10 11 12 12 13 12 10 9 11 11 11 10
28 28 27 27 26 24 22 19 16 15 15 15 13 13 13 14 15 16 17 17 17 16 15 15 14 12 11 10 9 8 8 7 6 5 3 2 1 1 2 4 4 6 7 7 7 8 7 7 7 7 6 7 7 6
28 26 26 26 25 24 23 21 18 15 12 10 10 11 10 9 8 8 9 10 11 12 13 13 13 14 13 12 12 11 10 10 10 9 8 7 6 4 4 3 4 3 5 5 5 5 4 4 4 3 3 4 4 2
29 26 25 25 24 23 25 23 22 19 17 13 9 7 8 9 8 7 4 2 2 3 3 4 5 6 7 7 7 7 8 8 8 8 7 6 6 6 7 6 6 8 8 6 6 6 5 4 4 3 3 4 3 4
30 29 26 24 25 25 25 24 22 23 22 19 15 12 9 6 5 6 6 5 4 2 3 5 5 5 5 4 3 3 3 3 4 4 4 5 6 6 4 3 3 4 5 6 6 7 8 9 9 9 8 8 8 8
29 29 29 28 27 27 24 25 26 24 24 23 22 19 16 12 10 8 7 6 4 4 3 3 3 3 4 6 8 9 10 10 10 10 10 10 10 10 10 9 8 8 9 11 12 12 13 14 14 13 13 13 12 13
30 29 28 28 29 29 29 26 27 28 27 26 26 26 24 20 17 16 15 12 11 9 7 6 4 3 4 4 5 6 6 6 7 9 10 11 11 11 10 10 10 10 11 12 12 12 11 11 10 9 9 9 10 11
32 30 29 29 28 28 28 28 29 29 30 30 30 29 29 28 25 23 22 21 17 15 13 11 10 9 7 5 5 5 5 5 5 6 6 7 7 7 7 6 6 6 6 6 6 7 7 7 7 7 8 9 9 11
35 33 31 29 27 28 28 29 28 28 30 30 31 32 33 31 29 28 28 28 27 24 21 18 17 15 13 12 11 10 8 7 6 6 5 5 4 4 4 4 4 4 4 4 5 5 6 7 8 8 9 10 11 12
37 34 32 32 31 31 33 32 30 29 30 31 34 36 34 34 30 29 33 33 30 29 28 26 25 23 21 18 17 16 14 13 12 10 9 8 8 7 7 7 7 7 8 8 8 9 9 9 9 10 11 12 12 13
39 37 33 32 32 32 34 33 31 31 33 36 39 39 35 32 31 32 35 34 33 32 31 32 30 28 28 27 25 22 21 19 18 17 15 14 13 12 12 12 11 10 10 11 11 12 12 12 13 13 14 15 17 17
38 40 39 36 34 31 30 33 34 31 36 39 41 40 35 34 35 34 34 35 34 34 34 35 35 35 34 34 33 31 30 27 25 23 22 20 19 17 17 16 15 15 15 15 16 16 16 17 17 18 18 19 21 23
47 42 38 35 32 33 31 31 36 36 37 41 42 42 37 34 37 37 37 36 35 34 36 37 37 37 38 38 38 36 35 34 32 30 29 28 27 26 25 24 23 22 22 22 21 21 21 21 21 22 22 23 25 26
46 46 42 38 33 29 31 31 34 35 34 37 40 41 38 34 37 39 39 39 38 37 36 36 37 37 38 39 40 38 37 37 37 36 35 34 33 32 32 31 29 28 28 28 28 28 28 27 27 27 28 28 29 30
46 45 42 37 33 32 32 29 30 31 32 35 35 35 36 32 34 39 40 41 40 40 39 39 39 38 38 38 38 38 37 36 35 35 36 36 36 35 35 35 35 34 34 34 33 33 33 32 32 32 32 32 33 34
47 42 39 38 35 33 32 32 29 28 30 31 31 33 34 28 30 39 42 39 38 38 37 36 36 36 37 37 36 37 37 37 37 36 36 36 37 38 38 38 38 38 37 38 37 37 37 36 35 36 36 36 37 36
Wind_Direction
280 276 273 266 265 263 261 261 261 260 260 260 260 259 259 257 258 259 259 259 259 259 258 258 259 259 259 259 258 259 259 261 261 260 259 259 259 261 264 267 268 268 271 272 274 275 275 273 275 271 271 271 272 273
282 280 280 271 265 264 262 259 259 258 257 257 259 261 261 259 259 260 260 261 261 260 260 259 259 261 260 259 259 258 259 260 260 260 260 260 259 259 260 260 262 264 267 268 268 267 266 270 268 268 270 274 277 277
288 286 286 277 272 266 263 260 257 257 258 261 263 262 261 260 260 260 260 259 261 262 261 260 261 262 262 261 260 259 260 260 260 260 261 261 261 258 255 256 258 259 261 262 259 259 259 261 265 269 273 274 275 273
315 303 295 285 275 267 263 260 258 259 262 264 263 260 260 260 260 260 260 260 260 261 262 263 263 263 263 264 263 263 263 262 262 261 262 260 257 255 254 252 253 255 253 252 253 256 257 258 261 265 269 273 273 273
336 331 316 301 285 274 266 262 261 262 262 260 258 258 257 258 259 259 258 259 260 261 263 264 265 265 266 265 264 264 264 262 261 260 257 252 250 250 250 249 247 246 248 247 248 250 249 254 257 261 268 271 272 268
355 348 334 315 291 279 277 270 266 264 262 260 260 261 259 259 261 263 263 263 265 266 266 266 264 263 263 263 261 258 257 257 253 252 253 250 251 251 249 243 241 243 241 242 244 244 245 256 266 263 261 258 265 271
10 2 353 340 320 299 288 280 277 278 272 268 268 267 265 264 265 267 265 265 264 263 263 263 264 267 269 260 250 253 256 254 253 255 255 255 253 252 246 234 239 237 238 240 242 247 251 255 259 261 258 260 263 265
20 17 12 5 353 336 317 299 286 283 279 269 266 267 270 267 261 259 260 261 261 261 261 261 267 271 267 256 253 254 256 260 254 247 245 244 245 236 228 231 237 234 237 238 242 246 250 253 255 254 256 261 263 268
17 21 21 16 11 3 349 337 319 299 283 279 273 267 264 265 269 272 269 266 267 271 270 269 269 261 259 255 254 257 254 251 246 244 247 240 224 221 230 234 237 234 235 237 239 243 248 250 253 258 259 266 270 265
18 19 22 23 20 15 10 6 355 337 325 302 286 278 278 280 282 281 279 276 275 273 267 258 255 260 248 245 238 240 241 244 246 241 236 232 226 232 236 238 240 237 240 244 245 248 253 256 260 257 259 261 258 261
23 25 24 25 26 25 18 11 4 353 341 323 290 291 288 286 284 286 278 277 270 266 264 255 251 248 244 239 238 239 243 238 226 227 235 238 234 236 237 237 234 229 234 239 245 251 252 248 251 255 256 254 259 265
21 26 30 31 30 31 33 32 25 16 16 13 7 349 314 289 287 311 301 289 308 290 292 277 255 237 234 234 228 225 225 231 234 234 232 230 237 234 238 235 232 228 229 234 235 237 243 246 248 253 257 263 268 269
25 25 27 32 35 35 36 37 40 41 36 25 19 55 70 75 89 100 84 75 62 59 95 66 47 155 155 274 250 242 233 234 230 229 222 233 233 227 229 227 229 231 234 236 233 235 243 250 252 259 266 272 276 277
24 29 28 32 38 43 46 48 49 55 61 60 55 52 46 52 71 82 81 78 69 73 77 82 86 112 121 139 265 228 203 210 210 207 209 213 216 220 226 219 224 227 234 234 238 244 250 257 262 270 276 278 280 284
18 22 27 28 29 33 39 43 46 48 48 52 55 55 54 53 49 51 54 60 66 65 64 95 115 143 148 137 146 196 203 215 215 210 211 211 212 214 223 226 228 232 238 243 251 257 261 265 269 272 284 287 291 293
9 14 18 26 30 30 31 35 43 46 48 47 47 48 50 49 47 51 51 53 51 55 57 52 60 88 185 153 153 176 171 181 196 205 212 212 212 212 219 227 233 243 248 254 257 259 265 275 282 285 285 286 287 284
360 3 8 12 18 27 30 30 30 34 43 47 49 49 47 46 49 55 56 56 53 56 54 47 52 51 57 64 69 83 86 136 145 174 202 222 236 242 247 260 274 275 274 269 268 270 274 274 279 280 279 278 278 281
351 351 355 357 1 6 17 27 33 30 30 35 41 45 48 49 49 52 55 59 61 61 64 68 69 67 71 74 78 75 75 80 75 64 352 325 318 303 289 288 295 292 287 287 285 279 275 274 272 273 277 280 280 279
343 342 342 342 346 349 353 359 10 25 30 30 28 32 35 39 42 46 48 52 55 59 63 65 67 70 72 73 72 78 82 83 81 79 70 66 40 330 303 310 315 306 310 309 294 281 277 272 272 272 278 274 269 269
336 334 333 331 330 333 336 337 339 345 356 18 33 38 37 33 28 30 33 37 41 47 53 57 59 62 62 63 65 64 65 70 73 72 70 70 73 76 68 43 37 32 22 357 337 324 320 315 295 275 259 252 245 252
329 328 325 322 320 318 321 323 326 325 328 330 340 2 21 28 27 32 35 19 358 7 12 26 38 44 42 40 45 51 51 47 49 51 54 52 50 56 56 56 44 46 39 21 16 12 6 345 343 340 309 308 327 346
325 322 319 317 313 310 308 309 306 310 311 312 312 309 314 325 346 357 5 8 5 334 295 278 271 275 273 273 274 290 300 312 310 311 320 335 336 325 322 334 352 356 337 323 320 319 313 310 306 301 302 304 310 314
326 320 317 314 310 309 306 300 301 301 299 303 302 297 294 286 284 287 299 308 322 333 334 329 311 282 268 261 255 253 254 254 259 267 274 276 275 274 276 281 285 287 289 292 293 292 290 290 291 292 293 296 302 306
326 320 315 311 308 306 305 303 295 294 295 294 292 294 294 291 285 277 274 267 267 278 288 296 307 320 326 326 319 305 303 287 277 272 269 267 266 267 269 270 274 278 280 281 286 289 291 295 299 303 309 316 321 324
327 320 315 310 308 304 302 297 294 293 292 289 288 286 285 287 287 284 276 276 265 263 266 268 276 283 288 289 299 306 301 301 296 290 287 279 274 277 283 283 278 276 281 286 293 298 303 311 321 328 332 332 330 328
327 323 320 313 306 298 293 289 287 285 285 284 283 281 280 282 284 282 280 283 282 278 266 261 259 257 261 268 276 280 279 272 270 270 271 273 271 274 277 281 277 277 279 284 288 296 304 309 311 313 315 318 321 321
327 323 319 312 307 300 296 296 291 285 282 281 278 276 278 280 283 281 277 277 279 279 279 275 268 264 262 258 257 259 262 267 267 267 269 273 278 280 280 281 282 287 292 293 293 295 298 302 305 307 309 314 318 320
329 324 322 315 309 303 298 296 289 283 278 272 272 275 276 276 273 268 270 272 272 272 270 272 273 271 268 264 261 258 256 255 255 257 258 258 260 265 270 274 274 277 279 283 285 287 290 294 298 301 306 309 312 314
328 324 324 321 315 307 299 290 285 282 276 274 276 279 280 277 273 269 266 267 268 268 268 268 268 269 269 268 268 266 262 259 255 253 252 254 257 258 258 263 268 271 274 278 282 286 288 291 293 297 301 304 308 311
328 328 326 322 318 308 301 290 283 280 276 276 278 281 280 273 271 271 270 268 267 267 267 267 266 266 266 267 267 266 265 265 263 259 258 258 259 260 263 264 267 270 274 278 280 284 287 290 293 298 301 306 309 312
326 325 326 324 321 309 300 294 290 290 286 281 280 281 282 275 271 269 269 271 270 266 263 263 265 266 266 266 267 268 268 266 266 266 265 264 263 264 266 267 269 272 274 276 279 281 284 288 291 295 300 304 306 308
327 326 325 323 320 313 306 299 293 289 285 282 283 283 283 280 273 267 267 266 267 268 267 264 260 259 260 262 264 265 266 265 265 264 265 267 267 267 269 270 272 273 275 277 280 281 283 286 289 293 296 300 302 305
328 329 326 321 318 314 310 305 301 295 289 286 284 282 281 279 268 266 265 266 267 268 268 267 268 267 265 263 262 262 261 262 262 262 262 262 263 265 266 267 269 272 274 276 278 280 282 285 288 290 292 295 299 302
Height
10004 10000 9999 9998 9997 9997 9999 10002 10005 10007 10010 10012 10015 10018 10021 10023 10024 10024 10033 10033 10038 10044 10047 10051 10052 10053 10058 10063 10065 10067 10069 10073 10079 10086 10092 10101 10109 10109 10115 10121 10118 10121 10125 10132 10135 10136 10137 10140 10144 10135 10133 10138 10141 10148
9994 9991 9988 9987 9986 9986 9988 9990 9993 9995 9997 9999 10003 10006 10009 10011 10012 10014 10018 10021 10023 10028 10031 10034 10037 10038 10043 10045 10046 10050 10050 10054 10057 10064 10070 10078 10088 10092 10098 10100 10101 10103 10107 10116 10120 10122 10115 10119 10116 10118 10118 10124 10126 10129
9985 9981 9979 9977 9977 9977 9978 9980 9981 9983 9985 9989 9993 9996 9999 10000 10002 10004 10009 10008 10011 10014 10015 10017 10023 10025 10027 10029 10031 10032 10036 10040 10043 10046 10052 10062 10067 10070 10077 10080 10084 10089 10094 10101 10098 10099 10103 10103 10100 10105 10104 10109 10112 10113
9978 9974 9971 9970 9969 9969 9970 9971 9972 9974 9977 9980 9983 9986 9989 9990 9992 9994 9996 9998 9999 10000 10002 10005 10008 10009 10013 10016 10016 10019 10022 10026 10029 10033 10038 10046 10049 10050 10056 10064 10070 10069 10075 10080 10083 10084 10092 10083 10084 10090 10091 10095 10099 10100
9972 9969 9966 9964 9963 9963 9963 9964 9965 9967 9970 9973 9975 9978 9980 9981 9982 9983 9985 9986 9987 9989 9990 9993 9996 9996 9999 10003 10006 10008 10008 10012 10015 10020 10024 10028 10029 10032 10040 10051 10054 10050 10058 10065 10066 10070 10076 10073 10074 10077 10082 10084 10083 10088
9970 9966 9964 9961 9960 9959 9959 9959 9961 9962 9965 9966 9968 9970 9972 9973 9973 9975 9975 9976 9979 9981 9981 9983 9985 9986 9988 9993 9995 9994 9994 9997 10002 10006 10010 10014 10014 10024 10030 10038 10033 10041 10045 10048 10052 10056 10059 10056 10066 10072 10074 10074 10073 10073
9970 9966 9963 9961 9958 9957 9957 9957 9958 9959 9960 9961 9963 9964 9965 9966 9968 9968 9968 9969 9970 9972 9973 9973 9972 9974 9978 9981 9981 9980 9984 9986 9993 9999 9999 10003 10005 10015 10021 10025 10014 10027 10031 10037 10041 10045 10047 10051 10056 10060 10062 10063 10064 10064
9971 9966 9963 9960 9958 9957 9956 9955 9956 9957 9958 9958 9959 9959 9960 9960 9960 9961 9963 9964 9964 9965 9966 9965 9966 9968 9970 9971 9971 9974 9976 9980 9985 9989 9989 9992 10001 10008 10005 10000 10006 10015 10020 10027 10031 10034 10037 10042 10045 10049 10051 10051 10053 10055
9973 9969 9965 9962 9960 9958 9956 9955 9955 9955 9955 9956 9956 9956 9955 9955 9955 9956 9957 9958 9959 9959 9959 9961 9962 9960 9963 9964 9967 9969 9972 9973 9975 9977 9983 9988 9991 9989 9988 9992 9998 10008 10012 10016 10021 10025 10028 10033 10036 10039 10040 10040 10045 10045
9977 9972 9968 9964 9962 9960 9958 9957 9955 9954 9954 9954 9954 9954 9953 9952 9952 9952 9952 9953 9954 9954 9954 9954 9953 9956 9957 9959 9960 9961 9963 9967 9970 9973 9974 9976 9979 9983 9987 9992 9999 10005 10008 10010 10015 10019 10022 10026 10029 10030 10032 10033 10034 10034
9985 9979 9973 9968 9964 9962 9960 9959 9957 9955 9955 9954 9953 9953 9952 9952 9951 9950 9950 9950 9950 9951 9951 9951 9952 9953 9954 9954 9955 9957 9960 9963 9965 9966 9968 9974 9978 9981 9985 9990 9995 10000 10003 10006 10009 10014 10017 10018 10019 10021 10024 10023 10023 10025
9993 9988 9981 9975 9970 9966 9963 9961 9960 9958 9957 9955 9954 9953 9952 9951 9950 9950 9950 9949 9949 9950 9950 9950 9951 9951 9952 9953 9954 9955 9957 9959 9961 9963 9967 9971 9974 9976 9980 9985 9989 9993 9998 10001 10005 10007 10008 10010 10012 10013 10013 10013 10014 10014
10002 9995 9988 9982 9977 9972 9968 9965 9962 9959 9958 9957 9956 9954 9953 9952 9951 9951 9950 9949 9949 9948 9949 9949 9950 9951 9951 9952 9953 9954 9956 9958 9960 9962 9965 9970 9972 9975 9976 9980 9984 9987 9991 9993 9996 9998 10000 10001 10002 10002 10003 10004 10004 10002
10009 10002 9996 9991 9985 9979 9974 9969 9966 9963 9961 9959 9957 9956 9956 9954 9953 9951 9950 9949 9950 9949 9949 9949 9951 9950 9951 9952 9953 9955 9955 9956 9958 9961 9964 9966 9968 9970 9971 9976 9979 9982 9983 9986 9987 9989 9991 9992 9994 9994 9994 9995 9994 9993
10012 10007 10000 9994 9989 9984 9979 9974 9969 9966 9964 9961 9960 9958 9957 9956 9955 9953 9952 9952 9952 9952 9952 9952 9952 9951 9951 9951 9951 9953 9954 9956 9958 9960 9960 9962 9964 9966 9968 9971 9973 9976 9978 9979 9981 9983 9984 9984 9986 9986 9987 9986 9985 9984
10014 10010 10006 10000 9995 9990 9986 9982 9977 9973 9969 9967 9964 9963 9961 9959 9958 9956 9956 9955 9954 9955 9955 9955 9954 9954 9954 9954 9955 9955 9956 9957 9958 9959 9960 9962 9964 9966 9967 9969 9970 9972 9973 9975 9976 9977 9978 9979 9980 9980 9979 9979 9979 9978
10014 10010 10007 10004 10001 9996 9992 9987 9983 9979 9976 9973 9970 9969 9967 9965 9963 9962 9961 9959 9958 9958 9957 9957 9957 9957 9957 9957 9958 9958 9959 9959 9960 9960 9961 9962 9963 9965 9966 9968 9969 9970 9971 9972 9972 9972 9972 9972 9972 9972 9973 9973 9973 9972
10015 10012 10009 10006 10003 10000 9997 9993 9989 9985 9982 9979 9976 9974 9972 9971 9970 9968 9966 9964 9963 9962 9961 9960 9960 9960 9959 9959 9958 9958 9959 9960 9960 9961 9961 9962 9963 9964 9964 9965 9966 9967 9967 9968 9968 9968 9967 9967 9967 9967 9968 9968 9967 9967
10015 10012 10010 10007 10004 10001 9998 9995 9993 9990 9987 9983 9980 9978 9976 9974 9973 9972 9970 9968 9967 9966 9965 9964 9963 9963 9962 9962 9961 9961 9961 9961 9961 9962 9962 9963 9963 9963 9963 9964 9964 9964 9964 9964 9964 9964 9964 9963 9963 9963 9963 9964 9964 9963
10013 10009 10007 10004 10002 10000 9998 9995 9993 9991 9989 9987 9984 9982 9979 9977 9975 9973 9972 9970 9970 9968 9968 9967 9967 9966 9965 9965 9965 9965 9965 9964 9964 9964 9964 9965 9965 9965 9965 9964 9964 9963 9962 9962 9962 9962 9961 9961 9961 9961 9961 9962 9961 9960
10010 10006 10002 10000 9998 9996 9994 9993 9991 9989 9988 9986 9984 9982 9980 9978 9976 9974 9972 9971 9970 9969 9968 9968 9967 9967 9967 9967 9967 9966 9966 9966 9965 9965 9966 9966 9966 9964 9964 9964 9964 9962 9962 9963 9963 9962 9962 9963 9962 9961 9962 9961 9960 9959
10006 10001 9998 9994 9992 9990 9989 9988 9987 9986 9984 9983 9981 9979 9977 9976 9975 9974 9973 9971 9970 9968 9967 9966 9966 9965 9965 9965 9965 9966 9966 9966 9966 9966 9966 9965 9965 9965 9964 9963 9962 9962 9962 9963 9963 9963 9963 9962 9961 9961 9960 9958 9957 9956
10001 9997 9992 9988 9985 9983 9983 9981 9979 9979 9978 9978 9976 9975 9974 9974 9973 9971 9970 9970 9969 9968 9967 9966 9965 9964 9964 9963 9963 9963 9962 9962 9962 9962 9961 9961 9962 9962 9962 9960 9960 9959 9960 9960 9959 9959 9959 9958 9957 9956 9955 9954 9952 9951
9995 9990 9986 9982 9978 9975 9973 9973 9971 9969 9969 9969 9969 9969 9968 9968 9968 9968 9967 9966 9965 9965 9964 9963 9963 9962 9961 9960 9960 9959 9959 9958 9958 9957 9957 9957 9957 9957 9956 9955 9955 9955 9954 9954 9954 9954 9953 9952 9952 9951 9950 9949 9947 9946
9987 9982 9978 9975 9971 9968 9966 9964 9962 9961 9960 9959 9958 9959 9958 9959 9961 9962 9961 9960 9961 9960 9960 9960 9959 9958 9958 9957 9957 9957 9957 9956 9956 9955 9954 9954 9953 9953 9952 9951 9951 9951 9951 9951 9951 9950 9950 9949 9949 9948 9947 9946 9945 9944
9979 9974 9971 9966 9963 9959 9956 9953 9952 9951 9950 9949 9949 9948 9947 9948 9950 9952 9952 9952 9952 9953 9953 9953 9954 9953 9953 9953 9953 9953 9953 9953 9952 9952 9952 9952 9951 9950 9950 9949 9949 9949 9949 9949 9949 9948 9948 9947 9946 9945 9944 9943 9942 9941
9971 9967 9963 9957 9954 9950 9947 9945 9944 9943 9941 9940 9937 9934 9936 9937 9939 9942 9941 9941 9942 9943 9943 9944 9946 9946 9947 9947 9947 9947 9948 9948 9948 9947 9947 9947 9947 9947 9947 9946 9946 9946 9946 9946 9945 9945 9944 9944 9943 9942 9941 9939 9938 9937
9963 9956 9953 9949 9944 9940 9936 9934 9934 9933 9931 9928 9923 9922 9924 9926 9928 9928 9927 9928 9930 9931 9932 9933 9935 9936 9938 9939 9940 9941 9941 9941 9942 9942 9942 9942 9942 9942 9942 9943 9942 9942 9942 9942 9942 9941 9940 9939 9938 9937 9936 9934 9933 9931
9955 9947 9942 9938 9934 9930 9928 9922 9919 9919 9915 9913 9911 9910 9913 9915 9914 9914 9915 9915 9917 9918 9919 9921 9923 9925 9927 9928 9930 9932 9933 9934 9934 9935 9935 9936 9936 9936 9936 9936 9937 9937 9936 9936 9935 9935 9934 9933 9932 9931 9929 9927 9925 9923
9939 9937 9932 9927 9924 9918 9915 9911 9905 9904 9902 9898 9897 9896 9899 9903 9901 9902 9902 9903 9904 9906 9907 9909 9910 9912 9914 9915 9917 9919 9921 9923 9924 9925 9926 9927 9927 9928 9929 9929 9929 9929 9929 9929 9928 9927 9926 9925 9924 9923 9921 9920 9917 9915
9932 9924 9919 9916 9912 9907 9902 9899 9895 9892 9892 9889 9885 9883 9884 9890 9889 9889 9890 9890 9891 9892 9893 9895 9896 9898 9900 9902 9903 9905 9908 9910 9911 9913 9915 9916 9917 9918 9919 9919 9920 9920 9919 9919 9919 9918 9917 9916 9915 9914 9913 9911 9909 9906
9923 9915 9908 9904 9901 9896 9891 9889 9886 9883 9880 9876 9875 9873 9872 9876 9879 9877 9876 9874 9876 9877 9879 9881 9882 9884 9886 9888 9891 9893 9895 9897 9899 9901 9902 9904 9905 9906 9907 9908 9908 9909 9909 9909 9908 9908 9907 9907 9906 9904 9903 9901 9899 9896
9913 9907 9900 9893 9888 9885 9881 9877 9875 9873 9870 9867 9865 9863 9861 9866 9867 9861 9859 9860 9862 9863 9865 9868 9870 9872 9873 9875 9878 9879 9881 9883 9885 9887 9889 9890 9892 9893 9894 9895 9896 9896 9897 9897 9897 9897 9896 9896 9895 9894 9892 9891 9888 9886